Tracking 28790 objects as of 19-Apr-2024
HD Live streaming from Space Station
objects crossing your sky now

DELTA 1 R/B(1)

Track DELTA 1 R/B(1) now!
10-day predictions


NORAD ID: 11636
Int'l Code: 1979-101B
Perigee: 590.1 km
Apogee: 2,605.5 km
Inclination: 28.2 °
Period: 118.0 minutes
Semi major axis: 7968 km
RCS: 9.4555 m2 (large)
Launch date: December 7, 1979
Source: United States (US)
Launch site: AIR FORCE EASTERN TEST RANGE (AFETR)

Note: This is a ROCKET BODY
Your satellite tracking list
Your tracking list is empty




NASA's NSSDC Master Catalog

Two Line Element Set (TLE):
1 11636U 79101B   24110.17376573  .00000456  00000-0  23205-3 0  9992
2 11636  28.2143  93.9810 1264540 129.0854 242.9120 12.20429599900675
Source of the keplerian elements: AFSPC